| time (UTC) | temp F | wind direction | speed MPH | gust MPH | rain 1hr in | rain 24hr in | rain mn in | humidity % | barometer mb |
| 20260906210050 | 96 | 0 | 2.0 | 6.0 | 0.00 | 0.00 | 0.00 | 43 | 1012.0 |
| 20260906204546 | 96 | 0 | 0.0 | 6.0 | 0.00 | 0.00 | 0.00 | 44 | 1012.2 |
| 20260906203038 | 94 | 217 | 0.0 | 4.0 | 0.00 | 0.00 | 0.00 | 49 | 1012.3 |
| 20260906201605 | 91 | 68 | 2.0 | 5.0 | 0.00 | 0.00 | 0.00 | 52 | 1012.5 |
| 20260906200038 | 92 | 0 | 0.0 | 1.0 | 0.00 | 0.00 | 0.00 | 51 | 1012.7 |
| 20260906194543 | 92 | 75 | 1.0 | 4.0 | 0.00 | 0.00 | 0.00 | 51 | 1012.8 |
| 20260906193039 | 93 | 219 | 1.0 | 6.0 | 0.00 | 0.00 | 0.00 | 51 | 1013.0 |
| 20260906191551 | 91 | 115 | 1.0 | 6.0 | 0.00 | 0.00 | 0.00 | 52 | 1013.1 |
| 20260906190045 | 91 | 53 | 4.0 | 8.0 | 0.00 | 0.00 | 0.00 | 52 | 1013.0 |
| 20260906184546 | 90 | 62 | 4.0 | 7.0 | 0.00 | 0.00 | 0.00 | 52 | 1013.3 |
| 20260906183042 | 90 | 67 | 1.0 | 6.0 | 0.00 | 0.00 | 0.00 | 53 | 1013.6 |
| 20260906181556 | 89 | 0 | 0.0 | 5.0 | 0.00 | 0.00 | 0.00 | 54 | 1013.8 |
| 20260906180038 | 88 | 61 | 2.0 | 6.0 | 0.00 | 0.00 | 0.00 | 58 | 1014.1 |
| 20260906173040 | 86 | 61 | 1.0 | 7.0 | 0.00 | 0.00 | 0.00 | 62 | 1014.5 |
| 20260906171540 | 86 | 40 | 3.0 | 7.0 | 0.00 | 0.00 | 0.00 | 63 | 1014.9 |
| 20260906170039 | 86 | 59 | 3.0 | 6.0 | 0.00 | 0.00 | 0.00 | 64 | 1015.0 |
| 20260906164539 | 85 | 70 | 2.0 | 6.0 | 0.00 | 0.00 | 0.00 | 67 | 1015.1 |
| 20260906163053 | 85 | 63 | 2.0 | 4.0 | 0.00 | 0.00 | 0.00 | 67 | 1015.1 |
| 20260906161539 | 85 | 63 | 3.0 | 8.0 | 0.00 | 0.00 | 0.00 | 68 | 1015.0 |
| 20260906160040 | 85 | 65 | 3.0 | 11.0 | 0.00 | 0.00 | 0.00 | 66 | 1015.0 |
| 20260906154539 | 84 | 60 | 3.0 | 7.0 | 0.00 | 0.00 | 0.00 | 69 | 1015.0 |
| 20260906153040 | 84 | 70 | 1.0 | 4.0 | 0.00 | 0.00 | 0.00 | 68 | 1014.8 |
| 20260906151545 | 84 | 0 | 0.0 | 0.0 | 0.00 | 0.00 | 0.00 | 68 | 1014.6 |
| 20260906150045 | 83 | 0 | 0.0 | 5.0 | 0.00 | 0.00 | 0.00 | 69 | 1014.5 |
| 20260906144540 | 82 | 0 | 0.0 | 1.0 | 0.00 | 0.00 | 0.00 | 73 | 1014.6 |
| 20260906143047 | 81 | 0 | 0.0 | 3.0 | 0.00 | 0.00 | 0.00 | 75 | 1014.5 |
| 20260906141548 | 81 | 0 | 0.0 | 1.0 | 0.00 | 0.00 | 0.00 | 75 | 1014.3 |
| 20260906140058 | 80 | 0 | 0.0 | 4.0 | 0.00 | 0.00 | 0.00 | 76 | 1014.2 |
| 20260906134539 | 81 | 0 | 0.0 | 0.0 | 0.00 | 0.00 | 0.00 | 75 | 1013.9 |
| 20260906133039 | 81 | 0 | 0.0 | 0.0 | 0.00 | 0.00 | 0.00 | 74 | 1013.6 |
| 20260906131549 | 79 | 0 | 0.0 | 0.0 | 0.00 | 0.00 | 0.00 | 79 | 1013.6 |
| 20260906130106 | 78 | 0 | 0.0 | 0.0 | 0.00 | 0.00 | 0.00 | 78 | 1013.3 |
| 20260906124542 | 79 | 0 | 0.0 | 0.0 | 0.00 | 0.00 | 0.00 | 77 | 1013.3 |
| 20260906123040 | 78 | 0 | 0.0 | 0.0 | 0.00 | 0.00 | 0.00 | 78 | 1013.2 |
| 20260906121539 | 78 | 0 | 0.0 | 0.0 | 0.00 | 0.00 | 0.00 | 79 | 1012.9 |
| 20260906120042 | 78 | 0 | 0.0 | 0.0 | 0.00 | 0.00 | 0.00 | 79 | 1012.7 |
| 20260906114545 | 78 | 0 | 0.0 | 0.0 | 0.00 | 0.00 | 0.00 | 78 | 1012.5 |
| 20260906113038 | 78 | 0 | 0.0 | 0.0 | 0.00 | 0.00 | 0.00 | 78 | 1012.4 |
| 20260906111539 | 78 | 0 | 0.0 | 0.0 | 0.00 | 0.00 | 0.00 | 79 | 1012.1 |
| 20260906110043 | 78 | 0 | 0.0 | 0.0 | 0.00 | 0.00 | 0.00 | 79 | 1011.9 |
| 20260906104540 | 78 | 0 | 0.0 | 0.0 | 0.00 | 0.00 | 0.00 | 79 | 1011.6 |
| 20260906103039 | 78 | 0 | 0.0 | 0.0 | 0.00 | 0.00 | 0.00 | 79 | 1011.8 |
| 20260906101538 | 78 | 0 | 0.0 | 0.0 | 0.00 | 0.00 | 0.00 | 78 | 1011.8 |
| 20260906100042 | 78 | 0 | 0.0 | 0.0 | 0.00 | 0.00 | 0.00 | 77 | 1011.7 |
| 20260906094548 | 79 | 0 | 0.0 | 0.0 | 0.00 | 0.00 | 0.00 | 76 | 1011.8 |
| 20260906093044 | 79 | 0 | 0.0 | 0.0 | 0.00 | 0.00 | 0.00 | 75 | 1011.9 |
| 20260906091547 | 79 | 0 | 0.0 | 0.0 | 0.00 | 0.00 | 0.00 | 75 | 1011.9 |
| 20260906090052 | 80 | 0 | 0.0 | 0.0 | 0.00 | 0.00 | 0.00 | 74 | 1011.8 |
| 20260906084539 | 80 | 0 | 0.0 | 0.0 | 0.00 | 0.00 | 0.00 | 72 | 1011.8 |
| 20260906083046 | 81 | 0 | 0.0 | 0.0 | 0.00 | 0.00 | 0.00 | 71 | 1011.7 |
| 20260906081543 | 81 | 70 | 0.0 | 3.0 | 0.00 | 0.00 | 0.00 | 70 | 1011.7 |
| 20260906080039 | 82 | 209 | 0.0 | 3.0 | 0.00 | 0.00 | 0.00 | 69 | 1011.8 |
| 20260906074552 | 82 | 176 | 1.0 | 5.0 | 0.00 | 0.00 | 0.00 | 68 | 1012.2 |
| 20260906073046 | 82 | 210 | 1.0 | 5.0 | 0.00 | 0.00 | 0.00 | 68 | 1012.4 |
| 20260906071539 | 82 | 192 | 0.0 | 2.0 | 0.00 | 0.00 | 0.00 | 70 | 1012.7 |
| 20260906070039 | 83 | 0 | 0.0 | 1.0 | 0.00 | 0.00 | 0.00 | 70 | 1012.8 |
| 20260906064542 | 83 | 0 | 1.0 | 3.0 | 0.00 | 0.00 | 0.00 | 69 | 1012.7 |
| 20260906063040 | 83 | 0 | 1.0 | 3.0 | 0.00 | 0.00 | 0.00 | 69 | 1012.9 |
| 20260906061539 | 83 | 0 | 0.0 | 4.0 | 0.00 | 0.00 | 0.00 | 69 | 1012.9 |
| 20260906060112 | 83 | 0 | 0.0 | 3.0 | 0.00 | 0.00 | 0.00 | 68 | 1013.1 |
| 20260906054540 | 84 | 0 | 0.0 | 1.0 | 0.00 | 0.00 | 0.00 | 67 | 1012.8 |
| 20260906053039 | 84 | 0 | 0.0 | 4.0 | 0.00 | 0.00 | 0.00 | 66 | 1012.8 |
| 20260906051537 | 84 | 212 | 0.0 | 4.0 | 0.00 | 0.00 | 0.00 | 65 | 1012.8 |
| 20260906050041 | 85 | 174 | 0.0 | 3.0 | 0.00 | 0.00 | 0.00 | 65 | 1012.9 |
| 20260906044543 | 85 | 202 | 0.0 | 3.0 | 0.00 | 0.00 | 0.00 | 64 | 1013.0 |
| 20260906043040 | 86 | 0 | 1.0 | 7.0 | 0.00 | 0.00 | 0.00 | 63 | 1012.8 |
| 20260906041546 | 86 | 212 | 1.0 | 3.0 | 0.00 | 0.00 | 0.00 | 61 | 1012.8 |
| 20260906040043 | 87 | 191 | 2.0 | 6.0 | 0.00 | 0.00 | 0.00 | 60 | 1012.8 |
| 20260906034546 | 87 | 57 | 2.0 | 5.0 | 0.00 | 0.00 | 0.00 | 59 | 1012.7 |
| 20260906033040 | 88 | 0 | 0.0 | 5.0 | 0.00 | 0.00 | 0.00 | 58 | 1012.7 |
| 20260906031606 | 88 | 0 | 0.0 | 4.0 | 0.00 | 0.00 | 0.00 | 58 | 1012.3 |
| 20260906030040 | 88 | 70 | 1.0 | 4.0 | 0.00 | 0.00 | 0.00 | 57 | 1012.1 |
| 20260906024543 | 89 | 110 | 1.0 | 7.0 | 0.00 | 0.00 | 0.00 | 56 | 1011.8 |
| 20260906023053 | 89 | 165 | 1.0 | 6.0 | 0.00 | 0.00 | 0.00 | 54 | 1011.4 |
| 20260906021540 | 90 | 50 | 1.0 | 3.0 | 0.00 | 0.00 | 0.00 | 52 | 1011.1 |
| 20260906020049 | 90 | 48 | 0.0 | 5.0 | 0.00 | 0.00 | 0.00 | 50 | 1010.8 |
| 20260906014539 | 91 | 72 | 0.0 | 4.0 | 0.00 | 0.00 | 0.00 | 48 | 1010.5 |
| 20260906013040 | 91 | 0 | 0.0 | 1.0 | 0.00 | 0.00 | 0.00 | 45 | 1010.4 |
| 20260906011541 | 92 | 0 | 0.0 | 2.0 | 0.00 | 0.00 | 0.00 | 43 | 1010.2 |
| 20260906010040 | 92 | 0 | 0.0 | 1.0 | 0.00 | 0.00 | 0.00 | 41 | 1010.2 |
| 20260906004547 | 93 | 0 | 0.0 | 3.0 | 0.00 | 0.00 | 0.00 | 40 | 1010.2 |
| 20260906003048 | 94 | 0 | 0.0 | 2.0 | 0.00 | 0.00 | 0.00 | 39 | 1010.0 |
| 20260906001544 | 94 | 0 | 1.0 | 4.0 | 0.00 | 0.00 | 0.00 | 38 | 1010.1 |
| 20260906000039 | 95 | 49 | 2.0 | 4.0 | 0.00 | 0.00 | 0.00 | 37 | 1010.3 |
| 20260905234544 | 95 | 68 | 1.0 | 5.0 | 0.00 | 0.00 | 0.00 | 37 | 1010.2 |